{"data":{"norad_id":63252,"intl_designator":"2025-052AU","name":"ARVAKER-1","alt_names":[],"object_type":"PAYLOAD","status":"ACTIVE","operator":null,"country":"NOR","launch_date":"2025-03-15","launch_site_code":"AFWTR","launch_vehicle":null,"mission":null,"orbit_class":"UNKNOWN","rcs_meters":null,"size_class":null,"mass_kg":null,"dimensions":null,"purposes":[],"wikipedia_slug":null,"has_3d_model":false,"image_url":null,"decayed_at":null,"tle_current":{"epoch":"2026-05-24T23:36:06.505632Z","epoch_age_seconds":79644,"freshness":"FRESH","line1":"1 63252U 25052AU  26144.98340863  .00001944  00000+0  18548-3 0  9996","line2":"2 63252  97.6902  36.6575 0001370 337.9057  22.2104 14.94458366 65147","mean_motion":14.94458366,"eccentricity":0.000137,"inclination_deg":97.6902,"raan_deg":36.6575,"arg_perigee_deg":337.9057,"mean_anomaly_deg":22.2104,"bstar":0.00018548,"rev_number":6514,"period_min":96.35597971553,"perigee_km":583.10061974068,"apogee_km":585.00826019523,"semimajor_km":6962.191439968,"source":"CELESTRAK","updated_at":"2026-05-25T13:38:03.606543Z"}}}